Regional Weather Roundup
Issued by NWS

Home | Current Version | Previous Version | Graphics & Text | Print | Product List | Glossary On
Versions: 1 2 3 4 5 6 7 8 9 10 11 12 13 14 15 16 17 18 19 20 21 22 23 24 25 26 27 28 29 30 31 32 33 34 35 36 37 38 39 40 41 42 43 44 45 46 47 48 49 50
000
ASUS43 KMKX 010721
RWRWI

WISCONSIN REGIONAL WEATHER ROUNDUP
NATIONAL WEATHER SERVICE MILWAUKEE/SULLIVAN WI
200 AM CDT TUE SEP 01 2015

NOTE: "FAIR" INDICATES FEW OR NO CLOUDS BELOW 12,000 FEET WITH NO
SIGNIFICANT WEATHER AND/OR OBSTRUCTIONS TO VISIBILITY.

WIZ001-002-006>008-014>016-023>028-010800-
NORTHWEST WISCONSIN

CITY           SKY/WX    TMP DP  RH WIND       PRES   REMARKS
SUPERIOR ARPT  MOCLDY    71  69  95 W3        29.87S
ASHLAND        PTCLDY    71  71 100 SW7       29.90S
HAYWARD        MOCLDY    73  70  90 S7        29.93S
SIREN          CLEAR     72  70  94 S5        29.91F
CUMBERLAND     CLEAR     68  68 100 S6        29.94F FOG
RICE LAKE      FOG       68  66  95 CALM      29.95F VSB 1
CHETEK         PTCLDY   N/A N/A N/A CALM      29.95S HAZE
LADYSMITH      CLEAR     70  68  94 S5        29.97F FOG
EAU CLAIRE     CLOUDY    73  70  90 S7        29.94S
MENOMONIE      FOG       68  68  99 CALM      29.94S VSB 1
NEW RICHMOND   PTCLDY    71  69  96 S5        29.94S
OSCEOLA        PTCLDY    71  71 100 S5        29.94F FOG
$$

WIZ003>005-009-010-017-018-010800-
NORTH CENTRAL WISCONSIN

CITY           SKY/WX    TMP DP  RH WIND       PRES   REMARKS
MANITOWISH WTR PTCLDY    67  67 100 S6        29.97F
ARBOR VITAE    CLEAR     69  68  94 S7        29.98F
WOODRUFF       CLEAR     69  68  94 S7        29.98F
RHINELANDER    CLEAR     69  66  90 SW8       30.00F
EAGLE RIVER    CLEAR     67  66  99 SW3       29.99S FOG
LAND O LAKES   CLEAR     66  66  98 CALM      29.99F FOG
PHILLIPS       PTCLDY    68  68  99 S6        29.97S
TOMAHAWK       CLEAR     66  65  96 CALM      30.00S FOG
MEDFORD        PTCLDY    66  66  99 S6        30.00S FOG
MERRILL          N/A     62  62 100 CALM      30.00S FOG
$$

WIZ029-030-035-036-043>047-010800-
CENTRAL WISCONSIN

CITY           SKY/WX    TMP DP  RH WIND       PRES   REMARKS
WAUSAU         CLEAR     68  66  93 S5        29.98F FOG
MOSINEE        CLEAR     64  64 100 S5        30.01S FOG
MARSHFIELD     FOG       66  62  87 S7        29.99F VSB 3/4
STEVENS POINT  CLEAR     65  65  97 CALM      30.00F FOG
WAUPACA        CLEAR     65  64  97 CALM      30.00F FOG
WAUTOMA        FOG       63  63 100 CALM      30.01S VSB 1
WISC RAPIDS    CLEAR     68  65  90 S5        30.00F
CAMP DOUGLAS   CLEAR     69  69 100 S8        29.98F
$$

WIZ011>013-019>022-031-037>040-048>050-010800-
NORTHEAST WISCONSIN

CITY           SKY/WX    TMP DP  RH WIND       PRES   REMARKS
ANTIGO         CLEAR     67  66  97 SW8       30.02S
SHAWANO        CLEAR     69  67  93 CALM      29.99F FOG
OCONTO         CLEAR     65  65 100 S3        29.99S
STURGEON BAY   CLEAR     66  63  88 S7        30.02S
GREEN BAY      CLEAR     67  65  93 S3        30.00F FOG
MANITOWOC      CLEAR     55  54  96 MISG      30.02F
APPLETON       CLEAR     66  66 100 S5        30.00S FOG
CLINTONVILLE   FOG       61  61 100 CALM      30.00S VSB<1/4
OSHKOSH        CLEAR     67  65  93 S8        30.00F FOG
$$

WIZ032>034-041-042-053>061-010800-
SOUTHWEST WISCONSIN

CITY           SKY/WX    TMP DP  RH WIND       PRES   REMARKS
LA CROSSE      PTCLDY    72  70  93 S5        29.95F
SPARTA         MOCLDY    68  66  94 CALM      29.98S FOG
VIROQUA          N/A     70  70 100 SE5       30.00S
BOSCOBEL       CLEAR     69  67  93 CALM      29.97F FOG
PRAIRIE DU CHI CLEAR     72  69  89 E5        29.97S
PLATTEVILLE    PTCLDY    72  70  96 SE6       30.00S
$$

WIZ056-057-062-063-064-067-068-010800-
SOUTH CENTRAL WISCONSIN

CITY           SKY/WX    TMP DP  RH WIND       PRES   REMARKS
REEDSBURG      CLEAR     72  69  90 S6        29.99S
BARABOO/DELLS  CLEAR     69  65  88 S7        30.00S
LONE ROCK      PTCLDY    70  67  90 E3        30.00S
MINERAL POINT  CLEAR     72  70  94 SE5       30.02S FOG
MADISON        CLEAR     72  67  84 S3        30.01S
MIDDLETON      CLEAR     69  68  97 CALM      30.02S
WATERTOWN      CLEAR     67  67 100 CALM      30.02S FOG
MONROE         CLEAR     72  68  88 S9        30.02F
JANESVILLE     CLEAR     68  64  88 CALM      30.01F FOG
$$

WIZ051-052-058>065-066-070>072-010800-
SOUTHEAST WISCONSIN

CITY           SKY/WX    TMP DP  RH WIND       PRES   REMARKS
MILWAUKEE      CLEAR     69  65  86 S5        30.03F
WAUKESHA       CLEAR     64  64 100 S5        30.04F FOG
MILWAUKEE/TIMM CLEAR     66  63  88 S3        30.04S
RACINE         CLEAR     69  66  90 CALM      30.04F FOG
BURLINGTON       N/A     61  61  99 CALM      30.03F FOG
KENOSHA        CLEAR     66  65  96 S3        30.03F
FOND DU LAC    CLEAR     68  66  93 S5        30.01F
SHEBOYGAN      FOG       62  62 100 CALM      30.02F VSB 1/4
WEST BEND        N/A     64  63  94 CALM      30.03F FOG
JUNEAU           N/A     66  65  98 SE3       30.04S FOG
$$

LSZ147-162-010800-
LAKE SUPERIOR

STATION/POSITION TIME  TEMP    WIND        PRES    WAVE
                       AIR SEA DIR/SP/G            HT/PER
                 (UTC) (F)     (DEG/KT/KT) (MB)    (FT/S)
W MID LAKE BUOY  0650   62 54  200/ 14/ 14 1011.1R   1/ 3
DEVILS ISLAND    0700   67     220/  5/  6 1011.4R
PORT WING        0600   74     190/  8/ 11 1011.5
SAXON HARBOR     0640   74     200/  6/ 10 1011.9S
$$

LMZ867-665-643>646-010800-
LAKE MICHIGAN

STATION/POSITION TIME  TEMP    WIND        PRES    WAVE
                       AIR SEA DIR/SP/G            HT/PER
                 (UTC) (F)     (DEG/KT/KT) (MB)    (FT/S)
CHAMBERS ISLAND  0600   68     170/  5/ 10 1015.6R
S GREEN BAY BUOY 0700   67 64  190/  8/ 10 1017.0S
N MID LAKE BUOY  0650   64 65  210/ 16/ 19 1015.1F   3/ 4
NORTHPORT PIER   0600   63     160/  5/  7 1015.6S
KEWAUNEE LAKESHO 0700   51     170/  4/  5   N/A
SHEBOYGAN LAKESH 0700   63     200/  5/  6 1016.8F
PORT WASHINGTON  0600   56      CALM  /  1 1017.6R
ATWATER BUOY     0700   59 51  160/  4/  4 1018.0F
MILWAUKEE LAKESH 0710   64     170/  2/  2   N/A
S MID LAKE BUOY  0650   71 69  150/  8/  8 1016.8F   0
KENOSHA   LAKESH 0700   70     180/  3/  4 1016.6F
$$

TC  - TEMPERATURE IN CELSIUS
VSB - VISIBILITY IN STATUTE MILES
WCI - WIND CHILL INDEX
HX  - HEAT INDEX



USA.gov is the U.S. government's official web portal to all federal, state and local government web resources and services.